This demonstration page uses our WeatherBlox Daily Observations layout. Learn more.

Left ArrowRight Arrow

39.29038, -76.61219

Hourly Observations for January 3, 2015

Temp ( °F °C ) Dew Point ( °F °C ) Humidity (%) Winds ( mph kmh ) Pressure ( in mb ) Visibility ( mi km ) Precip ( " mm )
12:54 am 00:54 undefined 36 2.2 25 -3.9 64 64 undefined N/A 30.44 1031 N/A 0.00 0.00
1:54 am 01:54 undefined 35 1.7 24 -4.4 64 64 undefined N/A 30.46 1032 N/A 0.00 0.00
2:54 am 02:54 undefined 35 1.7 24 -4.4 64 64 undefined N/A 30.49 1033 N/A 0.00 0.00
3:54 am 03:54 undefined 36 2.2 21 -6.1 55 55 undefined N/A 30.48 1032 N/A 0.00 0.00
4:54 am 04:54 undefined 36 2.2 24 -4.4 62 62 undefined N/A 30.50 1033 N/A 0.00 0.00
5:54 am 05:54 undefined 36 2.2 25 -3.9 64 64 undefined N/A 30.49 1033 N/A 0.00 0.00
6:54 am 06:54 undefined 36 2.2 25 -3.9 64 64 undefined N/A 30.50 1033 N/A 0.00 0.00
7:54 am 07:54 undefined 36 2.2 26 -3.3 67 67 undefined N/A 30.52 1034 N/A 0.00 0.00
8:54 am 08:54 undefined 36 2.2 29 -1.7 76 76 undefined N/A 30.53 1034 N/A 0.02 0.51
9:54 am 09:54 undefined 36 2.2 29 -1.7 76 76 undefined N/A 30.52 1033 N/A 0.00 0.00
10:54 am 10:54 undefined 36 2.2 30 -1.1 79 79 undefined N/A 30.51 1033 N/A 0.01 0.25
11:54 am 11:54 undefined 36 2.2 31 -0.6 82 82 undefined N/A 30.45 1031 N/A 0.00 0.00
12:54 pm 12:54 undefined 36 2.2 32 0 86 86 undefined N/A 30.43 1031 N/A 0.08 2.03
1:54 pm 13:54 undefined 37 2.8 34 1.1 89 89 undefined N/A 30.38 1029 N/A 0.03 0.76
2:54 pm 14:54 undefined 37 2.8 35 1.7 93 93 undefined N/A 30.37 1028 N/A 0.04 1.02
3:54 pm 15:54 undefined 37 2.8 36 2.2 96 96 undefined N/A 30.34 1027 N/A 0.00 0.00
4:54 pm 16:54 undefined 38 3.3 37 2.8 97 97 undefined N/A 30.32 1027 N/A 0.02 0.51
5:54 pm 17:54 undefined 38 3.3 37 2.8 97 97 undefined N/A 30.28 1026 N/A 0.01 0.25
6:54 pm 18:54 undefined 39 3.9 37 2.8 93 93 undefined N/A 30.26 1025 N/A 0.00 0.00
7:54 pm 19:54 undefined 40 4.4 38 3.3 93 93 undefined N/A 30.22 1023 N/A 0.00 0.00
8:54 pm 20:54 undefined 40 4.4 39 3.9 97 97 undefined N/A 30.19 1022 N/A 0.02 0.51
9:54 pm 21:54 undefined 41 5 40 4.4 96 96 undefined N/A 30.15 1021 N/A 0.22 5.59
10:54 pm 22:54 undefined 40 4.4 40 4.4 100 100 undefined N/A 30.11 1020 N/A 0.20 5.08
11:54 pm 23:54 undefined 40 4.4 40 4.4 100 100 undefined N/A 30.11 1020 N/A 0.00 0.00

Powered by AerisWeather